Regional Weather Roundup
Issued by NWS

Home | Current Version | Previous Version | Text Only | Print | Product List | Glossary On
Versions: 1 2 3 4 5 6 7 8 9 10 11 12 13 14 15 16 17 18 19 20 21 22 23 24 25 26 27 28 29 30 31 32 33 34 35 36 37 38 39 40 41 42 43 44 45 46 47 48 49 50
000
ASUS44 KJAN 222310
RWRMS

MISSISSIPPI HOURLY WEATHER ROUNDUP
NATIONAL WEATHER SERVICE JACKSON MS
600 PM CDT FRI AUG 22 2014

NOTE: "FAIR: INDICATES FEW OR NO CLOUDS BELOW 12,000 FEET WITH NO
SIGNIFICANT WEATHER AND/OR OBSTRUCTIONS TO VISIBILITY.

MSZ001>002-007>008-010>013-018>021-025>028-034>036-230000-
NORTHWEST MISSISSIPPI

CITY           SKY/WX    TMP DP  RH WIND       PRES   REMARKS
CLARKSDALE     FAIR      91  77  62 S3        30.01F HX 105
CLEVELAND      FAIR      92  75  57 SW6       30.00S HX 103
GREENWOOD      SUNNY     91  73  55 S6        30.01F HX  99
GREENVILLE     SUNNY     93  69  45 W6        30.00S HX  98
GRENADA        FAIR      90  68  48 CALM      30.01F HX  93
OLIVE BRANCH   MOSUNNY   91  77  62 SW9       30.00F HX 105
OXFORD         FAIR      90  68  48 NW5       30.04S HX  93
TUNICA           N/A     91  73  55 S8        30.00F HX 100
$$

MSZ003>006-009-014>017-022>024-029>033-037>039-230000-
NORTHEAST MISSISSIPPI

CITY           SKY/WX    TMP DP  RH WIND       PRES   REMARKS
BELMONT        FAIR      89  74  61 SW3       30.02F HX  98
COLUMBUS AFB   SUNNY     95  69  43 W6        30.00F HX 100
CORINTH        FAIR      91  73  55 SW7       30.00S HX 100
GOLDN TRIANGLE MOSUNNY   97  70  41 NW7       30.01F HX 103
STARKVILLE     FAIR      95  68  41 NW5       30.00F HX  99
TUPELO         SUNNY     93  71  48 VRB3      30.00F HX 100
$$

MSZ040-058-230000-
CENTRAL MISSISSIPPI

CITY           SKY/WX    TMP DP  RH WIND       PRES   REMARKS
JACKSON INTL   SUNNY     93  70  46 SW3       30.02F HX  99
JACKSON HAWKNS SUNNY     92  69  47 SW7       30.03F HX  97
MERIDIAN KEY   SUNNY     93  69  45 W6        30.01F HX  98
MERIDIAN NAS   SUNNY     94  71  47 W8        30.01F HX 101
RAYMOND        FAIR      91  86  84 W6        30.02F HX 122
VICKSBURG      SUNNY     91  72  53 S3        30.01F HX  98
$$

MSZ059>079-230000-
SOUTH MISSISSIPPI

CITY           SKY/WX    TMP DP  RH WIND       PRES   REMARKS
BROOKHAVEN     FAIR      91  73  55 NW3       30.05F HX 100
COLUMBIA       FAIR      93  72  49 MISG      30.01S HX 100
HATTIESBURG    MOSUNNY   95  69  42 W5        30.01F HX 100
MCCOMB         SUNNY     93  69  45 CALM      30.03F HX  98
NATCHEZ        MOSUNNY   91  73  55 SW3       30.04S HX 100
PINE BELT      SUNNY     95  70  43 NW5       30.04F HX 101
$$

MSZ080>082-230000-
COASTAL MISSISSIPPI

CITY           SKY/WX    TMP DP  RH WIND       PRES   REMARKS
BAY ST LOUIS   MOSUNNY  N/A N/A N/A SW9       30.01F
BILOXI         MOSUNNY   91  74  57 SW9       30.01F HX 100
PASCAGOULA     SUNNY     89  75  63 SW7       30.01F HX  99
GULFPORT       MOSUNNY   91  73  55 S5        30.00F HAZE    HX  99
$$



USA.gov is the U.S. government's official web portal to all federal, state and local government web resources and services.